Home > Weather > Kleve > Past weeks

Flag for Germany Past Weather in Kleve, North Rhine-Westphalia, Germany — Yesterday and Last 2 Weeks

Now
70 °F

Clear.


Feels Like: 70 °F
Forecast: 64 / 86 °F
Wind: 3 mph from North

Location: Niederrhein

Current Time: Aug 27, 2016 at 1:34:24 AM

Latest Report: Aug 26, 2016 at 11:50 PM


Visibility: 10 mi

Pressure: 30.09 "Hg

Humidity: 78%

Dew Point: 63 °F

Location of KleveLocation

Past Weather in Kleve — Graph

°F

Kleve Temperature Yesterday

Maximum temperature yesterday: 86 °F (at 1:50 PM)
Minimum temperature yesterday: 66 °F (at 4:50 AM)
Average temperature yesterday: 78 °F

High & Low Weather Summary for the Past Weeks

 TemperatureHumidityPressure
High91 °F (Aug 25, 4:50 PM)100% (Aug 11, 11:20 PM)30.33 "Hg (Aug 11, 11:20 PM)
Low54 °F (Aug 16, 5:50 AM)33% (Aug 24, 4:50 PM)29.77 "Hg (Aug 19, 3:20 PM)
Average69 °F69%30.07 "Hg
* Reported Aug 11 11:20 PM — Aug 26 11:50 PM, Kleve, Weather by CustomWeather, © 2016

Note: Actual official high and low records may vary slightly from our data, if they occured in-between our weather recording intervals... More about our weather records

Advertising

Kleve Weather History for the Previous 24 Hours

Scroll right to see more
 ConditionsComfort  
Time TempWeatherWind HumidityBarometerVisibility
11:50 PM
Fri, Aug 26
70 °FClear.3 mph78%30.09 "Hg10 mi
11:20 PM72 °FClear.2 mph73%30.09 "Hg10 mi
10:50 PM72 °FPassing clouds.5 mph73%30.09 "HgN/A
10:20 PM73 °FSunny.3 mph69%30.09 "Hg10 mi
9:50 PM73 °FSunny.5 mph74%30.07 "Hg10 mi
9:20 PM75 °FPassing clouds.5 mph69%30.07 "HgN/A
8:50 PM77 °FSunny.3 mph65%30.07 "Hg10 mi
8:20 PM79 °FPassing clouds.6 mph65%30.07 "HgN/A
7:50 PM81 °FPassing clouds.5 mph62%30.04 "HgN/A
7:20 PM81 °FSunny.5 mph66%30.04 "Hg10 mi
6:50 PM82 °FSunny.6 mph62%30.04 "Hg10 mi
6:20 PM84 °FPassing clouds.6 mph58%30.04 "HgN/A
5:50 PM84 °FPassing clouds.6 mph58%30.04 "HgN/A
5:20 PM84 °FSunny.5 mph55%30.04 "Hg10 mi
4:50 PM86 °FSunny.5 mph55%30.04 "Hg10 mi
4:20 PM86 °FSunny.6 mph52%30.04 "Hg10 mi
3:50 PM86 °FSunny.5 mph52%30.04 "Hg10 mi
3:20 PM86 °FSunny.6 mph49%30.04 "Hg10 mi
2:50 PM86 °FSunny.5 mph49%30.04 "Hg10 mi
2:20 PM86 °FSunny.5 mph52%30.04 "Hg10 mi
1:50 PM86 °FSunny.3 mph49%30.01 "Hg10 mi
1:20 PM84 °FSunny.6 mph55%30.01 "Hg10 mi
12:50 PM82 °FClear.3 mph62%30.01 "Hg4 mi
12:20 PM82 °FSunny.5 mph66%30.01 "Hg10 mi
11:50 AM81 °FSunny.5 mph62%30.01 "Hg10 mi
11:20 AM81 °FSunny.2 mph66%30.01 "Hg10 mi
10:50 AM81 °FPassing clouds.5 mph66%30.01 "HgN/A
10:20 AM77 °FPassing clouds.7 mph69%29.98 "HgN/A
9:50 AM75 °FPassing clouds.6 mph74%29.98 "HgN/A
9:20 AM73 °FSunny.3 mph74%29.98 "Hg10 mi
8:50 AM72 °FSunny.3 mph73%29.98 "Hg10 mi
8:20 AM70 °FClear.2 mph78%29.95 "Hg10 mi
7:50 AM68 °FPassing clouds.5 mph83%29.95 "HgN/A
7:20 AM68 °FClear.3 mph78%29.95 "Hg10 mi
6:50 AM66 °FClear.3 mph83%29.95 "Hg10 mi
5:50 AM68 °FClear.5 mph78%29.95 "Hg10 mi
5:20 AM68 °FClear.2 mph78%29.95 "Hg10 mi
4:50 AM66 °FClear.5 mph83%29.92 "Hg10 mi
Weather by CustomWeather, © 2016

See weather overviewHow to use our weather pages